Weather History for KRCM - October, 2012

Change the Weather History Date:

Sunday, October 28, 2012

  Actual Average (KSZL) Record (KSZL)
Temperature  
Mean Temperature 39 °F -  
Max Temperature 50 °F 61 °F 78 °F (1999)
Min Temperature 28 °F 44 °F 25 °F (2008)
Degree Days  
Heating Degree Days 26    
Moisture  
Dew Point 28 °F    
Average Humidity 68    
Maximum Humidity 93    
Minimum Humidity 40    
Precipitation  
Precipitation 0.00 in - - ()
Sea Level Pressure  
Sea Level Pressure 30.30 in    
Wind  
Wind Speed 2 mph (NNW)    
Max Wind Speed 7 mph    
Max Gust Speed -    
Visibility 10 miles    
Events      
Averages and records for this station are not official NWS values.
T = Trace of Precipitation, MM = Missing Value Source: NWS Daily Summary

Daily Weather History Graph

Daily Weather History Graph

Search for Another Location

Airport or City:

Trip Planner

Search our weather history database for the weather conditions in past years. The results will help you decide how hot, cold, wet, or windy it might be!

Date:

Astronomy

Oct. 28, 2012 Rise Set
Actual Time 7:38 AM CDT 6:18 PM CDT
Civil Twilight 7:11 AM CDT 6:46 PM CDT
Nautical Twilight 6:39 AM CDT 7:17 PM CDT
Astronomical Twilight 6:08 AM CDT 7:48 PM CDT
Moon 5:37 PM CDT (10/28) 6:32 AM CDT (10/28)
Length of Visible Light 11h 35m
Length of Day
10h 40m
Waxing Gibbous, 99% of the Moon is Illuminated
Oct 28
Waxing Gibbous
Oct 29
Full
Nov 6
Last Quarter
Nov 13
New
Nov 20
First Quarter

Hourly Weather History & Observations

Time (CDT) Temp. Windchill Dew Point Humidity Pressure Visibility Wind Dir Wind Speed Gust Speed Precip Events Conditions
12:35 AM 33.8 °F - 28.4 °F 81% 30.31 in 10.0 mi Calm Calm - N/A   Clear
12:55 AM 33.8 °F - 28.4 °F 81% 30.31 in 10.0 mi Calm Calm - N/A   Clear
1:15 AM 33.8 °F - 28.4 °F 81% 30.31 in 7.0 mi Calm Calm - N/A   Clear
1:55 AM 33.8 °F 30.8 °F 28.4 °F 81% 30.30 in 7.0 mi North 3.5 mph - N/A   Clear
2:15 AM 32.0 °F 28.7 °F 28.4 °F 87% 30.29 in 7.0 mi NNE 3.5 mph - N/A   Clear
2:35 AM 32.0 °F 28.7 °F 28.4 °F 87% 30.30 in 10.0 mi NNW 3.5 mph - N/A   Clear
2:55 AM 32.0 °F 28.7 °F 28.4 °F 87% 30.30 in 10.0 mi NW 3.5 mph - N/A   Clear
3:15 AM 32.0 °F - 28.4 °F 87% 30.29 in 10.0 mi Calm Calm - N/A   Clear
3:35 AM 32.0 °F 28.7 °F 28.4 °F 87% 30.28 in 10.0 mi North 3.5 mph - N/A   Clear
3:55 AM 32.0 °F 28.7 °F 28.4 °F 87% 30.29 in 10.0 mi NW 3.5 mph - N/A   Scattered Clouds
4:55 AM 32.0 °F 27.5 °F 28.4 °F 87% 30.29 in 10.0 mi NW 4.6 mph - N/A   Scattered Clouds
5:15 AM 32.0 °F 27.5 °F 28.4 °F 87% 30.30 in 10.0 mi WNW 4.6 mph - N/A   Mostly Cloudy
5:35 AM 32.0 °F 28.7 °F 28.4 °F 87% 30.30 in 10.0 mi NNW 3.5 mph - N/A   Scattered Clouds
5:55 AM 32.0 °F 28.7 °F 28.4 °F 87% 30.30 in 10.0 mi NNW 3.5 mph - N/A   Clear
6:15 AM 32.0 °F 28.7 °F 28.4 °F 87% 30.30 in 10.0 mi North 3.5 mph - N/A   Clear
6:35 AM 28.4 °F 24.6 °F 26.6 °F 93% 30.30 in 10.0 mi NW 3.5 mph - N/A   Clear
6:55 AM 30.2 °F 26.7 °F 28.4 °F 93% 30.30 in 10.0 mi NNW 3.5 mph - N/A   Clear
7:15 AM 28.4 °F - 26.6 °F 93% 30.31 in 10.0 mi Calm Calm - N/A   Clear
7:35 AM 30.2 °F - 28.4 °F 93% 30.31 in 10.0 mi Calm Calm - N/A   Clear
7:55 AM 30.2 °F - 26.6 °F 86% 30.32 in 10.0 mi Calm Calm - N/A   Clear
8:15 AM 30.2 °F - 26.6 °F 86% 30.32 in 10.0 mi Calm Calm - N/A   Clear
8:35 AM 30.2 °F 26.7 °F 28.4 °F 93% 30.34 in 10.0 mi WNW 3.5 mph - N/A   Clear
8:55 AM 32.0 °F - 28.4 °F 87% 30.35 in 10.0 mi Calm Calm - N/A   Clear
9:15 AM 32.0 °F 28.7 °F 28.4 °F 87% 30.35 in 10.0 mi NW 3.5 mph - N/A   Clear
9:35 AM 33.8 °F - 30.2 °F 87% 30.36 in 10.0 mi Calm Calm - N/A   Clear
9:55 AM 37.4 °F - 30.2 °F 75% 30.35 in 10.0 mi Calm Calm - N/A   Clear
10:15 AM 39.2 °F - 30.2 °F 70% 30.35 in 10.0 mi Calm Calm - N/A   Clear
10:55 AM 42.8 °F - 28.4 °F 57% 30.35 in 10.0 mi Calm Calm - N/A   Clear
11:15 AM 42.8 °F 39.3 °F 28.4 °F 57% 30.34 in 10.0 mi NNE 5.8 mph - N/A   Clear
11:55 AM 44.6 °F - 26.6 °F 49% 30.34 in 10.0 mi Calm Calm - N/A   Clear
12:15 PM 44.6 °F 43.1 °F 26.6 °F 49% 30.33 in 10.0 mi North 3.5 mph - N/A   Clear
12:35 PM 44.6 °F - 26.6 °F 49% 30.32 in 10.0 mi Calm Calm - N/A   Clear
12:55 PM 46.4 °F 45.2 °F 26.6 °F 46% 30.32 in 10.0 mi NW 3.5 mph - N/A   Clear
1:15 PM 46.4 °F 45.2 °F 26.6 °F 46% 30.31 in 10.0 mi NNW 3.5 mph - N/A   Clear
1:55 PM 48.2 °F - 28.4 °F 46% 30.29 in 10.0 mi NW 5.8 mph - N/A   Clear
2:15 PM 48.2 °F - 26.6 °F 43% 30.28 in 10.0 mi North 3.5 mph - N/A   Clear
2:35 PM 48.2 °F - 28.4 °F 46% 30.28 in 10.0 mi North 5.8 mph - N/A   Clear
2:55 PM 50.0 °F - 28.4 °F 43% 30.27 in 10.0 mi NNW 6.9 mph - N/A   Clear
3:15 PM 50.0 °F - 26.6 °F 40% 30.26 in 10.0 mi North 5.8 mph - N/A   Clear
3:35 PM 50.0 °F - 26.6 °F 40% 30.26 in 10.0 mi Calm Calm - N/A   Clear
3:55 PM 50.0 °F - 26.6 °F 40% 30.26 in 10.0 mi Calm Calm - N/A   Clear
4:15 PM 50.0 °F - 26.6 °F 40% 30.26 in 10.0 mi NNE 4.6 mph - N/A   Clear
4:55 PM 50.0 °F - 26.6 °F 40% 30.25 in 10.0 mi NNW 4.6 mph - N/A   Clear
5:15 PM 48.2 °F - 28.4 °F 46% 30.25 in 10.0 mi NNE 3.5 mph - N/A   Clear
5:35 PM 48.2 °F - 26.6 °F 43% 30.26 in 10.0 mi North 4.6 mph - N/A   Clear
5:55 PM 46.4 °F 44.3 °F 28.4 °F 50% 30.26 in 7.0 mi North 4.6 mph - N/A   Clear
6:15 PM 44.6 °F 43.1 °F 26.6 °F 49% 30.26 in 10.0 mi North 3.5 mph - N/A   Clear
6:35 PM 44.6 °F 43.1 °F 26.6 °F 49% 30.26 in 10.0 mi North 3.5 mph - N/A   Clear
6:55 PM 44.6 °F - 26.6 °F 49% 30.26 in 10.0 mi Calm Calm - N/A   Clear
7:35 PM 42.8 °F - 26.6 °F 53% 30.28 in 10.0 mi Calm Calm - N/A   Clear
7:55 PM 41.0 °F - 26.6 °F 57% 30.28 in 10.0 mi Calm Calm - N/A   Clear
8:15 PM 41.0 °F - 26.6 °F 57% 30.28 in 10.0 mi Calm Calm - N/A   Clear
8:35 PM 41.0 °F - 26.6 °F 57% 30.28 in 10.0 mi Calm Calm - N/A   Clear
8:55 PM 37.4 °F - 26.6 °F 65% 30.28 in 10.0 mi Calm Calm - N/A   Clear
9:15 PM 37.4 °F - 28.4 °F 70% 30.28 in 10.0 mi Calm Calm - N/A   Clear
9:55 PM 35.6 °F - 28.4 °F 75% 30.29 in 3.0 mi Calm Calm - N/A   Haze
10:15 PM 35.6 °F - 28.4 °F 75% 30.29 in 5.0 mi Calm Calm - N/A   Haze
10:55 PM 33.8 °F - 26.6 °F 75% 30.29 in 10.0 mi Calm Calm - N/A   Clear
11:15 PM 33.8 °F - 28.4 °F 81% 30.29 in 10.0 mi Calm Calm - N/A   Clear
11:35 PM 32.0 °F - 26.6 °F 80% 30.29 in 10.0 mi Calm Calm - N/A   Clear
11:55 PM 32.0 °F - 26.6 °F 80% 30.30 in 10.0 mi Calm Calm - N/A   Clear